Voltar ao catálogo

CZ-6A DEB

AtivoSSO
NORAD 54267·DEBRIS·🇨🇳 China

Lançado Nov 11, 2022 de Taiyuan Satellite Launch Center

Loading…

Próximas Passagens (próximas 24 horas)

TLE

AtualizadoSource: Space-Track

Época: Sep 14, 2026, 16:14 UTC

1 54267U 22151J   26257.67659059  .00001355  00000-0  36614-3 0  9991
2 54267  98.7959 337.2118 0086232   7.0632 353.1752 14.47405341202145

Acompanhe CZ-6A DEB em tempo real com AllMySat

Download on the App Store